When you browse on this site, cookies collect data to enhance your experience and personalize the content and advertising you see.
Visit our Privacy Policy to learn more. By continuing to use the site, you agree to this use of cookies and data.
EN

Hourly Weather Pazardzhik

Today, 13 July, Monday

Time Temperature Precipitation Wind Pressure Humidity
00:00 +20°C° 0 mm 3 mps 743 mmHg 82%
01:00 +19°C° 0 mm 3 mps 743 mmHg 80%
02:00 +19°C° 0 mm 3 mps 743 mmHg 79%
03:00 +18°C° 0 mm 3 mps 743 mmHg 78%
04:00 +18°C° 0 mm 3 mps 743 mmHg 77%
05:00 +17°C° 0 mm 3 mps 743 mmHg 75%
06:00 +18°C° 0 mm 3 mps 743 mmHg 70%
07:00 +19°C° 0 mm 3 mps 743 mmHg 65%
08:00 +21°C° 0 mm 4 mps 744 mmHg 59%
09:00 +22°C° 0 mm 3 mps 744 mmHg 54%
10:00 +24°C° 0 mm 3 mps 744 mmHg 49%
11:00 +26°C° 0 mm 3 mps 744 mmHg 44%
12:00 +26°C° 0 mm 3 mps 744 mmHg 42%
13:00 +27°C° 0 mm 3 mps 744 mmHg 40%
14:00 +28°C° 0 mm 4 mps 743 mmHg 38%
15:00 +27°C° 0 mm 4 mps 743 mmHg 41%
16:00 +27°C° 0 mm 4 mps 743 mmHg 43%
17:00 +26°C° 0 mm 4 mps 742 mmHg 46%
18:00 +25°C° 0 mm 3 mps 743 mmHg 53%
19:00 +23°C° 0 mm 2 mps 743 mmHg 61%
20:00 +21°C° 0 mm 1 mps 743 mmHg 69%
21:00 +20°C° 0 mm 1 mps 743 mmHg 71%
22:00 +19°C° 0 mm 1 mps 743 mmHg 74%
23:00 +18°C° 0 mm 1 mps 744 mmHg 77%

Tomorrow, 14 July, Tuesday

Time Temperature Precipitation Wind Pressure Humidity
00:00 +18°C° 0 mm 1 mps 744 mmHg 78%
01:00 +18°C° 0 mm 1 mps 744 mmHg 80%
02:00 +15°C° 0 mm 0 mps 744 mmHg 81%
03:00 +16°C° 0 mm 1 mps 744 mmHg 82%
04:00 +16°C° 0 mm 1 mps 744 mmHg 82%
05:00 +15°C° 0 mm 1 mps 744 mmHg 83%
06:00 +18°C° 0 mm 1 mps 744 mmHg 76%
07:00 +20°C° 0 mm 1 mps 744 mmHg 68%
08:00 +22°C° 0 mm 1 mps 744 mmHg 61%
09:00 +23°C° 0 mm 1 mps 744 mmHg 55%
10:00 +24°C° 0 mm 2 mps 744 mmHg 50%
11:00 +25°C° 0 mm 3 mps 743 mmHg 44%
12:00 +26°C° 0 mm 3 mps 743 mmHg 42%
13:00 +27°C° 0 mm 3 mps 743 mmHg 40%
14:00 +28°C° 0 mm 3 mps 742 mmHg 37%
15:00 +28°C° 0 mm 2 mps 742 mmHg 38%
16:00 +28°C° 0 mm 2 mps 742 mmHg 38%
17:00 +27°C° 0 mm 2 mps 741 mmHg 39%
18:00 +25°C° 0 mm 2 mps 742 mmHg 46%
19:00 +23°C° 0 mm 2 mps 742 mmHg 53%
20:00 +21°C° 0 mm 1 mps 742 mmHg 60%
21:00 +20°C° 0 mm 1 mps 742 mmHg 63%
22:00 +20°C° 0 mm 1 mps 742 mmHg 66%
23:00 +19°C° 0 mm 1 mps 743 mmHg 69%

Day after tomorrow, 15 July, Wednesday

Time Temperature Precipitation Wind Pressure Humidity
00:00 +18°C° 0 mm 1 mps 743 mmHg 71%
01:00 +18°C° 0 mm 1 mps 743 mmHg 73%
02:00 +16°C° 0 mm 1 mps 743 mmHg 75%
03:00 +16°C° 0 mm 1 mps 743 mmHg 77%
04:00 +15°C° 0 mm 1 mps 743 mmHg 79%
05:00 +15°C° 0 mm 1 mps 743 mmHg 81%
06:00 +18°C° 0 mm 1 mps 743 mmHg 74%
07:00 +20°C° 0 mm 1 mps 743 mmHg 67%
08:00 +22°C° 0 mm 1 mps 743 mmHg 60%
09:00 +24°C° 0 mm 1 mps 743 mmHg 55%
10:00 +25°C° 0 mm 2 mps 743 mmHg 50%
11:00 +27°C° 0 mm 2 mps 743 mmHg 45%
12:00 +28°C° 0 mm 2 mps 743 mmHg 43%
13:00 +29°C° 0 mm 2 mps 743 mmHg 41%
14:00 +30°C° 0 mm 2 mps 742 mmHg 38%
15:00 +30°C° 0 mm 2 mps 742 mmHg 39%
16:00 +30°C° 0 mm 2 mps 742 mmHg 39%
17:00 +30°C° 0 mm 2 mps 742 mmHg 40%
18:00 +28°C° 0 mm 2 mps 742 mmHg 47%
19:00 +25°C° 0 mm 1 mps 742 mmHg 54%
20:00 +23°C° 0 mm 1 mps 742 mmHg 61%
21:00 +22°C° 0 mm 1 mps 742 mmHg 63%
22:00 +21°C° 0 mm 2 mps 742 mmHg 66%
23:00 +20°C° 0 mm 2 mps 742 mmHg 68%

16 July, Thursday

Time Temperature Precipitation Wind Pressure Humidity
00:00 +20°C° 0 mm 1 mps 742 mmHg 71%
01:00 +19°C° 0 mm 1 mps 742 mmHg 73%
02:00 +19°C° 0 mm 1 mps 742 mmHg 76%
03:00 +19°C° 0 mm 1 mps 742 mmHg 76%
04:00 +18°C° 0 mm 1 mps 742 mmHg 77%
05:00 +18°C° 0 mm 1 mps 741 mmHg 77%
06:00 +20°C° 0 mm 1 mps 742 mmHg 72%
07:00 +22°C° 0 mm 1 mps 742 mmHg 66%
08:00 +24°C° 0 mm 1 mps 742 mmHg 61%
09:00 +25°C° 0.1 mm 1 mps 742 mmHg 56%
10:00 +27°C° 0.1 mm 1 mps 742 mmHg 51%
11:00 +29°C° 0.1 mm 1 mps 741 mmHg 46%
12:00 +30°C° 0.2 mm 2 mps 741 mmHg 44%
13:00 +30°C° 0.2 mm 2 mps 741 mmHg 43%
14:00 +31°C° 0.2 mm 2 mps 740 mmHg 41%
15:00 +31°C° 0.2 mm 2 mps 740 mmHg 41%
16:00 +31°C° 0.2 mm 2 mps 740 mmHg 42%
17:00 +31°C° 0.2 mm 2 mps 739 mmHg 43%
18:00 +29°C° 0.1 mm 2 mps 739 mmHg 50%
19:00 +26°C° 0.1 mm 1 mps 739 mmHg 57%
20:00 +24°C° 0.1 mm 1 mps 739 mmHg 64%
21:00 +24°C° 0 mm 1 mps 740 mmHg 65%
22:00 +23°C° 0 mm 2 mps 740 mmHg 66%
23:00 +23°C° 0 mm 2 mps 740 mmHg 67%

17 July, Friday

Time Temperature Precipitation Wind Pressure Humidity
00:00 +22°C° 0 mm 1 mps 740 mmHg 70%
01:00 +21°C° 0 mm 1 mps 740 mmHg 74%
02:00 +20°C° 0 mm 1 mps 740 mmHg 77%
03:00 +19°C° 0 mm 1 mps 740 mmHg 79%
04:00 +19°C° 0 mm 1 mps 740 mmHg 80%
05:00 +18°C° 0 mm 1 mps 739 mmHg 82%
06:00 +21°C° 0 mm 1 mps 740 mmHg 76%
07:00 +23°C° 0 mm 1 mps 740 mmHg 69%
08:00 +25°C° 0 mm 1 mps 740 mmHg 63%
09:00 +26°C° 0 mm 1 mps 740 mmHg 57%
10:00 +28°C° 0 mm 2 mps 740 mmHg 52%
11:00 +29°C° 0 mm 2 mps 740 mmHg 46%
12:00 +30°C° 0.1 mm 2 mps 740 mmHg 43%
13:00 +31°C° 0.1 mm 3 mps 739 mmHg 40%
14:00 +33°C° 0.1 mm 3 mps 739 mmHg 37%
15:00 +31°C° 0.1 mm 3 mps 739 mmHg 40%
16:00 +30°C° 0.1 mm 3 mps 739 mmHg 42%
17:00 +29°C° 0.1 mm 2 mps 739 mmHg 44%
18:00 +28°C° 0 mm 2 mps 739 mmHg 50%
19:00 +26°C° 0 mm 2 mps 739 mmHg 56%
20:00 +24°C° 0 mm 1 mps 739 mmHg 61%
21:00 +23°C° 0 mm 1 mps 740 mmHg 64%
22:00 +23°C° 0 mm 1 mps 740 mmHg 66%
23:00 +22°C° 0 mm 1 mps 740 mmHg 68%

18 July, Saturday

Time Temperature Precipitation Wind Pressure Humidity
00:00 +21°C° 0 mm 1 mps 740 mmHg 70%
01:00 +20°C° 0 mm 1 mps 740 mmHg 72%
02:00 +20°C° 0 mm 1 mps 740 mmHg 74%
03:00 +19°C° 0 mm 1 mps 740 mmHg 76%
04:00 +19°C° 0 mm 1 mps 740 mmHg 78%
05:00 +19°C° 0 mm 1 mps 740 mmHg 80%
06:00 +21°C° 0 mm 1 mps 740 mmHg 74%
07:00 +23°C° 0 mm 1 mps 741 mmHg 68%
08:00 +24°C° 0 mm 1 mps 741 mmHg 61%
09:00 +26°C° 0 mm 2 mps 740 mmHg 55%
10:00 +28°C° 0 mm 2 mps 740 mmHg 48%
11:00 +29°C° 0 mm 3 mps 740 mmHg 42%
12:00 +30°C° 0 mm 3 mps 740 mmHg 39%
13:00 +31°C° 0 mm 3 mps 739 mmHg 36%
14:00 +33°C° 0 mm 4 mps 739 mmHg 33%
15:00 +33°C° 0 mm 4 mps 739 mmHg 34%
16:00 +33°C° 0 mm 4 mps 738 mmHg 36%
17:00 +32°C° 0 mm 4 mps 738 mmHg 37%
18:00 +29°C° 0 mm 3 mps 738 mmHg 44%
19:00 +27°C° 0 mm 3 mps 738 mmHg 50%
20:00 +25°C° 0 mm 2 mps 738 mmHg 57%
21:00 +24°C° 0 mm 2 mps 738 mmHg 60%
22:00 +23°C° 0 mm 2 mps 739 mmHg 63%
23:00 +21°C° 0 mm 2 mps 739 mmHg 65%
Show more